Regional Weather Roundup
Issued by NWS

Home | Current Version | Previous Version | Graphics & Text | Print | Product List | Glossary On
Versions: 1 2 3 4 5 6 7 8 9 10 11 12 13 14 15 16 17 18 19 20 21 22 23 24 25 26 27 28 29 30 31 32 33 34 35 36 37 38 39 40 41 42 43 44 45 46 47 48 49 50
000
ASUS43 KMPX 281810
RWRMN
WEATHER ROUNDUP FOR MINNESOTA
NATIONAL WEATHER SERVICE TWIN CITIES/CHANHASSEN MN
100 PM CDT WED JUN 28 2017


NOTE: "FAIR" INDICATES FEW OR NO CLOUDS BELOW 12,000 FEET WITH NO
SIGNIFICANT WEATHER AND/OR OBSTRUCTIONS TO VISIBILITY. N/A MEANS
CURRENT SKY AND/OR WEATHER CONDITIONS ARE NOT AVAILABLE.

MNZ060>063-068>070-281900-
   Twin Cities Metro

CITY           SKY/WX    TMP DP  RH WIND       PRES   REMARKS
TWIN CITIES    PTSUNNY   75  66  73 S10G16    29.55F
6HR MIN TEMP:  63; 6HR MAX TEMP:  75; 6HR PCP:  0.20;

ST PAUL        CLOUDY    73  69  87 SE10      29.56F
CRYSTAL        CLOUDY    72  65  78 S8        29.54F
BLAINE         CLOUDY    70  70 100 SE13      29.56S
LAKEVILLE      CLOUDY    75  66  73 S10G17    29.56F
EDEN PRAIRIE   PTSUNNY   78  68  71 SW13      29.53F
6HR MIN TEMP:  63; 6HR MAX TEMP:  78; 6HR PCP:  0.16;

SOUTH ST PAUL  PTSUNNY   70  70  98 S8        29.56F
LAKE ELMO      RAIN      68  64  88 SW6G17    29.60S
$$
MNZ001>005-007-008-013>017-022>024-027-028-281900-
   Northwest Minnesota

CITY           SKY/WX    TMP DP  RH WIND       PRES   REMARKS
BEMIDJI        LGT RAIN  61  60  94 E9        29.52F
HALLOCK        DRIZZLE   63  61  94 NE5       29.54S
ROSEAU         LGT RAIN  61  55  82 E8        29.58S
WARROAD        RAIN      61  55  82 E10       29.59S
THIEF RVR FALL RAIN      59  58  96 NE8       29.54R FOG
CROOKSTON      RAIN      61  59  94 NE10      29.51S
FOSSTON        LGT RAIN  59  59 100 E8        29.50F
DETROIT LAKES  CLOUDY    68  63  83 SE5       29.49S
MOORHEAD       CLOUDY    68  63  83 W14       29.49R
PARK RAPIDS    CLOUDY    63  59  87 E7        29.50F
MAHNOMEN       CLOUDY    62  61  96 E8        29.48S FOG
$$
MNZ006-009>011-018-025>026-281900-
   North Central Minnesota

CITY           SKY/WX    TMP DP  RH WIND       PRES   REMARKS
BAUDETTE       LGT RAIN  58  57  97 E10       29.59S
FLAG ISLAND    CLOUDY    63  54  72 E3        29.60S
INTL FALLS     LGT RAIN  60  58  92 E8        29.61S FOG
6HR MIN TEMP:  56; 6HR MAX TEMP:  62; 6HR PCP:  0.09;

WASKISH        RAIN      61  57  88 E8        29.57S
BIG FORK       PTSUNNY   66  57  72 SE9       29.57F
LONGVILLE      CLOUDY    61  57  88 E3        29.54F
GRAND RAPIDS   HVY RAIN  58  57  97 VRB7      29.59F FOG
CRANE LAKE     DRIZZLE   64  57  77 CALM      29.64F
ORR            CLOUDY    63  55  77 SE5       29.59F
COOK           LGT RAIN  61  57  88 E3        29.61F
WALKER         CLOUDY    62  58  87 E8        29.53F
$$
MNZ012-019>021-037-281900-
   Northeast Minnesota

CITY           SKY/WX    TMP DP  RH WIND       PRES   REMARKS
DULUTH         HVY RAIN  54  54 100 E16       29.60F FOG
6HR MIN TEMP:  54; 6HR MAX TEMP:  57; 6HR PCP:  0.51;

ELY            LGT RAIN  61  54  77 E6        29.64F
HIBBING        RAIN      57  57 100 E6        29.59F FOG
EVELETH        LGT RAIN  58  54  86 E6        29.62F
DULUTH HARBOR  LGT RAIN  50  48  93 NE17      29.61F
TWO HARBORS    LGT RAIN  57  54  88 E7        29.62F
SILVER BAY     LGT RAIN  55  54  94 E7        29.65R
G MARAIS ARPRT CLOUDY    59  46  63 E7        29.72F
$$
MNZ029>031-032-039>041-046>048-054>057-064-281900-
   West Central Minnesota

CITY           SKY/WX    TMP DP  RH WIND       PRES   REMARKS
FERGUS FALLS   CLOUDY    70  64  83 W7        29.46R
WHEATON        PTSUNNY   73  63  68 W17G24    29.52R
MORRIS         PTSUNNY   72  63  73 W18G24    29.49S
ALEXANDRIA     CLOUDY    68  62  81 W17       29.50S
ELBOW LAKE     CLOUDY    67  64  88 NW12      29.48R
WADENA         CLOUDY    66  63  88 E3        29.48F
GLENWOOD       PTSUNNY   68  63  83 SW14G25   29.50S
APPLETON       CLOUDY    75  61  60 W24G32    29.51R
BENSON         CLOUDY    73  63  68 NW22G29   29.52S
ORTONVILLE     CLOUDY    73  61  64 W20G26    29.53R
MADISON        CLOUDY    79  63  57 W21G29    29.53R
WILLMAR        PTSUNNY   75  66  73 W18G25    29.52R
$$
MNZ033>034-036-042>043-049>051-058-059-281900-
   Central Minnesota

CITY           SKY/WX    TMP DP  RH WIND       PRES   REMARKS
ST CLOUD       CLOUDY    69  67  93 S12       29.50F
6HR MIN TEMP:  62; 6HR MAX TEMP:  69; 6HR PCP:  0.12;

SAUK CENTRE    CLOUDY    68  63  85 SW13G21   29.50S
PAYNESVILLE    CLOUDY    70  70  99 SW15G21   29.52R
AITKIN         LGT RAIN  61  59  94 E5        29.51F
PINE RIVER     CLOUDY    61  61 100 E9        29.56F
BRAINERD       LGT RAIN  64  63  96 SE7       29.51F
STAPLES        CLOUDY    64  63  94 E3        29.49F
LONG PRAIRIE   CLOUDY    64  63  94 S9        29.50S
LITTLE FALLS   CLOUDY    64  63  94 S8        29.50F
LITCHFIELD     CLOUDY    72  66  83 SW7       29.52F
BUFFALO        DRIZZLE   69  65  85 SE8       29.53F
MAPLE LAKE     PTSUNNY   70  67  92 S6        29.53F
HUTCHINSON     CLOUDY    76  68  77 SW10G16   29.55R
$$
MNZ037-044-045-052-053-281900-
   East Central Minnesota

CITY           SKY/WX    TMP DP  RH WIND       PRES   REMARKS
PRINCETON      CLOUDY    70  66  88 SE9       29.53F
MORA           LGT RAIN  64  64 100 S7        29.55F
CAMBRIDGE      LGT RAIN  70  63  78 S10       29.53F
RUSH CITY      CLOUDY    64  63  94 SW5G12    29.56S
MOOSE LAKE     DRIZZLE   61  59  94 SE3       29.54F
HINCKLEY       DRIZZLE   64  64 100 SE7       29.55F
CLOQUET        LGT RAIN  55  54  94 E7        29.59F
MCGREGOR       CLOUDY    61  61 100 SE6       29.55F
$$
MNZ071>073-080-081-089-090-097-098-281900-
   Southwest Minnesota

CITY           SKY/WX    TMP DP  RH WIND       PRES   REMARKS
MONTEVIDEO     PTSUNNY   75  64  69 NW15G21   29.52R
GRANITE FALLS  CLOUDY    76  66  70 SW15      29.55R
CANBY          MOSUNNY   77  63  61 W15G23    29.57R
MARSHALL       CLOUDY    78  65  63 W20G32    29.55R
REDWOOD FALLS  CLOUDY    79  66  64 SW13G22   29.53R
OLIVIA         MOSUNNY   77  64  65 W20G25    29.52S
PIPESTONE      CLOUDY    79  64  61 W12       29.61S
WINDOM         CLOUDY    79  64  61 SW18G26   29.59R
WORTHINGTON    CLOUDY    78  69  73 SW14G24   29.61S
JACKSON        CLOUDY    79  64  61 SW18      29.61F
TRACY          CLOUDY    74  67  76 SW14      29.58R
SLAYTON        CLOUDY    76  65  67 SW17G25   29.60R
$$
MNZ065>067-074>077-082>085-091>093-281900-
   South Central Minnesota

CITY           SKY/WX    TMP DP  RH WIND       PRES   REMARKS
MANKATO        PTSUNNY   79  68  69 SW20G25   29.56R
NEW ULM        CLOUDY    79  66  65 SW15      29.55R
ST JAMES       CLOUDY    79  66  65 SW14G22   29.57R
FAIRMONT       SUNNY     79  68  69 SW18G25   29.60S
GLENCOE        MOSUNNY   79  71  77 S12G18    29.52F
FARIBAULT      MOSUNNY   77  68  73 S15G25    29.57F
OWATONNA       SUNNY     77  68  73 S20G28    29.59F
WASECA         CLOUDY    77  66  69 S22G28    29.59F
ALBERT LEA     PTSUNNY   77  66  69 SW9G21    29.62F
$$
MNZ078>079-086>088-094>096-281900-
   Southeast Minnesota

CITY           SKY/WX    TMP DP  RH WIND       PRES   REMARKS
ROCHESTER      PTSUNNY   71  66  84 S21G35    29.65F
6HR MIN TEMP:  61; 6HR MAX TEMP:  72; 6HR PCP:  0.24;

RED WING       CLOUDY    72  64  78 S10G20    29.59F
STANTON        MOSUNNY   77  67  71 S15G25    29.56F
DODGE CENTER   MOSUNNY   73  66  78 S24G30    29.62F
WINONA         CLOUDY    70  64  83 S6        29.67S
AUSTIN         PTSUNNY   70  64  83 S13G18    29.65S
PRESTON        CLOUDY    69  64  82 S17G26    29.68F
$$
ABBREVIATIONS USED IN REMARKS
   TC - TEMPERATURES IN CELSIUS
  WCI - WIND CHILL INDEX
   HX - HEAT INDEX
  VSB - VISIBILITY
$$




USA.gov is the U.S. government's official web portal to all federal, state and local government web resources and services.